Miscellaneous Local Product
Issued by NWS Hastings, NE

Home | Current Version | Previous Version | Graphics & Text | Print | Product List | Glossary Off
Versions: 1 2 3 4 5 6 7 8 9 10 11 12 13 14 15 16 17 18 19 20 21 22 23 24 25 26 27 28 29 30 31 32 33 34 35 36 37 38 39 40 41 42 43 44 45 46 47 48 49 50

000
AXUS43 KGID 061602
MISGRI

GID CWA HOURLY WEATHER ROUNDUP
NATIONAL WEATHER SERVICE HASTINGS NE
1000 AM CST FRI MAR 06 2015

NOTE: "FAIR" INDICATES FEW OR NO CLOUDS BELOW 12,000 FEET WITH NO
SIGNIFICANT WEATHER AND/OR OBSTRUCTIONS TO VISIBILITY.

...SOUTH CENTRAL NEBRASKA...

CITY           SKY/WX    TMP DP  RH WIND       PRES   REMARKS
GRAND ISLAND   SUNNY     42  20  41 SW8       30.23S
HASTINGS       FAIR      42  18  37 W8        30.24R
KEARNEY        SUNNY     41  19  42 SW8       30.24S
ORD            SUNNY     45  17  32 W7        30.19S
YORK           SUNNY     45  21  39 W8        30.23F
AURORA         SUNNY     41  19  40 W7        30.23S
LEXINGTON      SUNNY     40  24  52 W8        30.25S WCI  34
HOLDREGE       SUNNY     40  21  47 W9        30.25S WCI  34
HEBRON         SUNNY     43  17  35 W5        30.27S

...NEBRASKA PANHANDLE...

CITY           SKY/WX    TMP DP  RH WIND       PRES   REMARKS
CHADRON        CLOUDY    39  24  55 W13       30.22R WCI  31
ALLIANCE       SUNNY     44  21  40 W20       30.21R
SCOTTSBLUFF    SUNNY     42  22  44 NW14      30.26R
SIDNEY         SUNNY     45  19  35 NW18      30.26R

...WESTERN AND NORTH CENTRAL NEBRASKA...

CITY           SKY/WX    TMP DP  RH WIND       PRES   REMARKS
VALENTINE      SUNNY     43  23  45 W14       30.17R
AINSWORTH      SUNNY     44  20  37 NW10      30.17R
ONEILL         SUNNY     44  23  43 W13       30.15R
BROKEN BOW     SUNNY     47  21  35 W9        30.20S
IMPERIAL         N/A     46  20  35 NW14      30.26S
NORTH PLATTE   SUNNY     42  23  46 W13       30.24S
MCCOOK         SUNNY     42  22  44 W9        30.28R

...EASTERN NEBRASKA...

CITY           SKY/WX    TMP DP  RH WIND       PRES   REMARKS
NORFOLK        SUNNY     47  19  33 W7        30.16F
SO SIOUX CITY  SUNNY     38  18  44 CALM      30.16F
TEKAMAH        SUNNY     41  19  41 S5        30.20R
COLUMBUS       SUNNY     39  18  41 W10       30.23R WCI  32
ALBION         SUNNY     42  19  38 W5        30.18S
OMAHA EPPLEY   SUNNY     36  17  46 SW8       30.23R WCI  30
OFFUTT AFB     SUNNY     39  17  39 SW8       30.22R WCI  34
MILLARD        SUNNY     36  17  47 SW5       30.23R WCI  32
LINCOLN        SUNNY     44  19  36 CALM      30.25S
NEBRASKA CITY  SUNNY     42  13  31 W14       30.24S
BEATRICE       SUNNY     38  18  44 SW8       30.27R WCI  33
FALLS CITY     SUNNY     45  22  40 W10       30.27R

...NORTHERN KANSAS...

CITY           SKY/WX    TMP DP  RH WIND       PRES   REMARKS
GOODLAND       SUNNY     48  21  34 W13       30.31R
HILL CITY      SUNNY     45  22  40 W8        30.30R
NORTON         SUNNY     48  16  27 W13       30.27
PHILLIPSBURG   SUNNY     50  21  32 W12       30.28F
SMITH CENTER   SUNNY     41  23  48 W7        30.29S
BELOIT         SUNNY     41  21  45 SW8       30.30S
HAYS           SUNNY     46  21  36 NW6       30.32S
RUSSELL        SUNNY     43  23  45 W7        30.30R
CONCORDIA      SUNNY     43  19  38 W10       30.28S
SALINA         SUNNY     43  23  45 SW9       30.33S
TOPEKA         SUNNY     42  22  44 SW12      30.32F



USA.gov is the U.S. government's official web portal to all federal, state and local government web resources and services.